Time,TemperatureF,DewpointF,PressureIn,WindDirection,WindDirectionDegrees,WindSpeedMPH,WindSpeedGustMPH,Humidity,HourlyPrecipIn,Conditions,Clouds,dailyrainin,SoftwareType,DateUTC
2013-02-01 00:01:00,28.6,14.0,22.57,South,186,12.0,21.0,54,0.00,,,0.00,Wunderground v.1.15,2013-02-01 07:01:00,
2013-02-01 00:03:00,28.7,13.7,22.57,WSW,248,11.0,21.0,53,0.00,,,0.00,Wunderground v.1.15,2013-02-01 07:03:00,
2013-02-01 00:05:00,28.9,13.9,22.57,SSW,209,10.0,21.0,53,0.00,,,0.00,Wunderground v.1.15,2013-02-01 07:05:00,
2013-02-01 00:07:00,28.9,13.9,22.57,SW,231,10.0,21.0,53,0.00,,,0.00,Wunderground v.1.15,2013-02-01 07:07:00,
2013-02-01 00:13:00,29.0,14.0,22.57,WSW,243,10.0,21.0,53,0.00,,,0.00,Wunderground v.1.15,2013-02-01 07:13:00,
2013-02-01 00:17:00,29.1,13.6,22.56,WSW,240,10.0,21.0,52,0.00,,,0.00,Wunderground v.1.15,2013-02-01 07:17:00,
2013-02-01 00:19:00,29.0,13.6,22.56,WSW,238,9.0,21.0,52,0.00,,,0.00,Wunderground v.1.15,2013-02-01 07:19:00,
2013-02-01 00:21:00,29.0,13.6,22.56,SW,218,9.0,21.0,52,0.00,,,0.00,Wunderground v.1.15,2013-02-01 07:21:00,
2013-02-01 00:27:00,28.9,13.9,22.56,WSW,240,7.0,21.0,53,0.00,,,0.00,Wunderground v.1.15,2013-02-01 07:27:00,
2013-02-01 00:31:00,28.8,13.8,22.56,NE,40,6.0,21.0,53,0.00,,,0.00,Wunderground v.1.15,2013-02-01 07:31:00,
2013-02-01 00:37:00,28.7,13.7,22.56,SSE,159,5.0,21.0,53,0.00,,,0.00,Wunderground v.1.15,2013-02-01 07:37:00,
2013-02-01 00:43:00,28.6,14.0,22.56,NNW,329,6.0,6.0,54,0.00,,,0.00,Wunderground v.1.15,2013-02-01 07:43:00,
2013-02-01 00:45:00,28.5,13.9,22.56,WSW,242,6.0,21.0,54,0.00,,,0.00,Wunderground v.1.15,2013-02-01 07:45:00,
2013-02-01 00:47:00,28.5,13.9,22.56,SW,214,6.0,21.0,54,0.00,,,0.00,Wunderground v.1.15,2013-02-01 07:47:00,
2013-02-01 00:54:00,28.6,13.6,22.56,SSE,165,7.0,7.0,53,0.00,,,0.00,Wunderground v.1.15,2013-02-01 07:54:00,
2013-02-01 00:55:00,28.6,13.6,22.56,West,259,7.0,21.0,53,0.00,,,0.00,Wunderground v.1.15,2013-02-01 07:55:00,
2013-02-01 00:59:00,28.7,13.3,22.56,SW,232,7.0,21.0,52,0.00,,,0.00,Wunderground v.1.15,2013-02-01 07:59:00,
2013-02-01 01:03:00,28.8,12.9,22.56,WSW,250,6.0,21.0,51,0.00,,,0.00,Wunderground v.1.15,2013-02-01 08:03:00,
2013-02-01 01:05:00,28.9,13.0,22.56,WNW,284,6.0,21.0,51,0.00,,,0.00,Wunderground v.1.15,2013-02-01 08:05:00,
2013-02-01 01:07:00,28.9,13.0,22.56,WSW,248,6.0,21.0,51,0.00,,,0.00,Wunderground v.1.15,2013-02-01 08:07:00,
2013-02-01 01:09:00,28.8,12.9,22.56,SSW,207,5.0,21.0,51,0.00,,,0.00,Wunderground v.1.15,2013-02-01 08:09:00,
2013-02-01 01:15:00,28.7,12.8,22.55,SW,224,5.0,21.0,51,0.00,,,0.00,Wunderground v.1.15,2013-02-01 08:15:00,
2013-02-01 01:19:00,28.7,12.8,22.55,SE,136,5.0,21.0,51,0.00,,,0.00,Wunderground v.1.15,2013-02-01 08:19:00,
2013-02-01 01:21:00,28.8,12.5,22.55,NNW,331,5.0,21.0,50,0.00,,,0.00,Wunderground v.1.15,2013-02-01 08:21:00,
2013-02-01 01:23:00,28.9,12.6,22.55,WSW,238,5.0,21.0,50,0.00,,,0.00,Wunderground v.1.15,2013-02-01 08:23:00,
2013-02-01 01:27:00,29.0,12.7,22.55,SW,231,6.0,21.0,50,0.00,,,0.00,Wunderground v.1.15,2013-02-01 08:27:00,
2013-02-01 01:29:00,29.0,12.7,22.55,South,183,7.0,21.0,50,0.00,,,0.00,Wunderground v.1.15,2013-02-01 08:29:00,
2013-02-01 01:35:00,28.9,13.0,22.55,SSE,148,7.0,7.0,51,0.00,,,0.00,Wunderground v.1.15,2013-02-01 08:35:00,
2013-02-01 01:37:00,28.9,13.0,22.55,WSW,257,6.0,21.0,51,0.00,,,0.00,Wunderground v.1.15,2013-02-01 08:37:00,
2013-02-01 01:39:00,29.0,13.1,22.55,West,273,6.0,21.0,51,0.00,,,0.00,Wunderground v.1.15,2013-02-01 08:39:00,
2013-02-01 01:45:00,29.1,12.8,22.54,NW,326,7.0,7.0,50,0.00,,,0.00,Wunderground v.1.15,2013-02-01 08:45:00,
2013-02-01 01:47:00,29.1,12.8,22.55,SW,226,7.0,21.0,50,0.00,,,0.00,Wunderground v.1.15,2013-02-01 08:47:00,
2013-02-01 01:49:00,29.1,12.8,22.55,SW,215,7.0,21.0,50,0.00,,,0.00,Wunderground v.1.15,2013-02-01 08:49:00,
2013-02-01 01:51:00,29.0,12.7,22.55,SW,233,7.0,21.0,50,0.00,,,0.00,Wunderground v.1.15,2013-02-01 08:51:00,
2013-02-01 01:55:00,29.0,13.1,22.54,WSW,245,6.0,21.0,51,0.00,,,0.00,Wunderground v.1.15,2013-02-01 08:55:00,
2013-02-01 01:57:00,29.0,13.1,22.55,WSW,257,6.0,21.0,51,0.00,,,0.00,Wunderground v.1.15,2013-02-01 08:57:00,
2013-02-01 01:59:00,29.0,13.1,22.54,WSW,246,6.0,21.0,51,0.00,,,0.00,Wunderground v.1.15,2013-02-01 08:59:00,
2013-02-01 02:01:00,29.0,13.1,22.54,SW,215,7.0,21.0,51,0.00,,,0.00,Wunderground v.1.15,2013-02-01 09:01:00,
2013-02-01 02:03:00,29.0,13.1,22.55,SW,231,8.0,21.0,51,0.00,,,0.00,Wunderground v.1.15,2013-02-01 09:03:00,
2013-02-01 02:05:00,29.1,13.2,22.54,WNW,296,9.0,21.0,51,0.00,,,0.00,Wunderground v.1.15,2013-02-01 09:05:00,
2013-02-01 02:07:00,29.1,13.2,22.55,West,264,9.0,21.0,51,0.00,,,0.00,Wunderground v.1.15,2013-02-01 09:07:00,
2013-02-01 02:11:00,29.1,13.2,22.54,ESE,117,9.0,21.0,51,0.00,,,0.00,Wunderground v.1.15,2013-02-01 09:11:00,
2013-02-01 02:17:00,29.1,13.2,22.54,South,184,7.0,21.0,51,0.00,,,0.00,Wunderground v.1.15,2013-02-01 09:17:00,
2013-02-01 02:19:00,29.1,13.2,22.54,SW,226,6.0,21.0,51,0.00,,,0.00,Wunderground v.1.15,2013-02-01 09:19:00,
2013-02-01 02:25:00,29.3,13.4,22.55,West,281,8.0,21.0,51,0.00,,,0.00,Wunderground v.1.15,2013-02-01 09:25:00,
2013-02-01 02:27:00,29.2,13.3,22.54,WSW,246,8.0,21.0,51,0.00,,,0.00,Wunderground v.1.15,2013-02-01 09:27:00,
2013-02-01 02:29:00,29.1,13.2,22.54,West,276,9.0,21.0,51,0.00,,,0.00,Wunderground v.1.15,2013-02-01 09:29:00,
2013-02-01 02:35:00,29.2,13.3,22.55,NNW,345,8.0,21.0,51,0.00,,,0.00,Wunderground v.1.15,2013-02-01 09:35:00,
2013-02-01 02:41:00,29.1,13.2,22.55,West,259,8.0,21.0,51,0.00,,,0.00,Wunderground v.1.15,2013-02-01 09:41:00,
2013-02-01 02:43:00,29.0,12.7,22.55,SW,224,7.0,7.0,50,0.00,,,0.00,Wunderground v.1.15,2013-02-01 09:43:00,
2013-02-01 02:47:00,29.0,13.1,22.55,SW,222,6.0,12.0,51,0.00,,,0.00,Wunderground v.1.15,2013-02-01 09:47:00,
2013-02-01 02:49:00,29.0,13.1,22.55,WSW,256,6.0,21.0,51,0.00,,,0.00,Wunderground v.1.15,2013-02-01 09:49:00,
2013-02-01 02:53:00,29.0,13.1,22.55,NNE,25,7.0,7.0,51,0.00,,,0.00,Wunderground v.1.15,2013-02-01 09:53:00,
2013-02-01 02:55:00,29.0,13.1,22.55,ESE,123,8.0,8.0,51,0.00,,,0.00,Wunderground v.1.15,2013-02-01 09:55:00,
2013-02-01 02:59:00,29.1,13.2,22.55,WSW,240,8.0,10.0,51,0.00,,,0.00,Wunderground v.1.15,2013-02-01 09:59:00,
2013-02-01 03:03:00,29.1,13.2,22.55,WSW,250,8.0,21.0,51,0.00,,,0.00,Wunderground v.1.15,2013-02-01 10:03:00,
2013-02-01 03:07:00,29.1,13.2,22.55,SW,231,7.0,21.0,51,0.00,,,0.00,Wunderground v.1.15,2013-02-01 10:07:00,
2013-02-01 03:09:00,29.1,13.2,22.55,SSW,207,8.0,21.0,51,0.00,,,0.00,Wunderground v.1.15,2013-02-01 10:09:00,
2013-02-01 03:11:00,29.2,13.3,22.55,West,269,7.0,21.0,51,0.00,,,0.00,Wunderground v.1.15,2013-02-01 10:11:00,
2013-02-01 03:13:00,29.1,13.2,22.55,SSW,203,8.0,21.0,51,0.00,,,0.00,Wunderground v.1.15,2013-02-01 10:13:00,
2013-02-01 03:17:00,29.2,13.3,22.55,WSW,240,10.0,21.0,51,0.00,,,0.00,Wunderground v.1.15,2013-02-01 10:17:00,
2013-02-01 03:21:00,29.2,13.3,22.55,West,259,10.0,21.0,51,0.00,,,0.00,Wunderground v.1.15,2013-02-01 10:21:00,
2013-02-01 03:23:00,29.2,13.3,22.54,WSW,245,11.0,21.0,51,0.00,,,0.00,Wunderground v.1.15,2013-02-01 10:23:00,
2013-02-01 03:25:00,29.2,13.3,22.54,West,273,11.0,21.0,51,0.00,,,0.00,Wunderground v.1.15,2013-02-01 10:25:00,
2013-02-01 03:29:00,29.1,13.6,22.54,NW,322,8.0,21.0,52,0.00,,,0.00,Wunderground v.1.15,2013-02-01 10:29:00,
2013-02-01 03:31:00,29.2,13.3,22.55,WNW,287,8.0,21.0,51,0.00,,,0.00,Wunderground v.1.15,2013-02-01 10:31:00,
2013-02-01 03:37:00,29.2,13.3,22.54,SW,217,8.0,21.0,51,0.00,,,0.00,Wunderground v.1.15,2013-02-01 10:37:00,
2013-02-01 03:39:00,29.1,13.2,22.54,SW,218,8.0,21.0,51,0.00,,,0.00,Wunderground v.1.15,2013-02-01 10:39:00,
2013-02-01 03:41:00,29.1,13.2,22.53,SW,215,8.0,21.0,51,0.00,,,0.00,Wunderground v.1.15,2013-02-01 10:41:00,
2013-02-01 03:47:00,29.4,13.0,22.54,WSW,246,7.0,21.0,50,0.00,,,0.00,Wunderground v.1.15,2013-02-01 10:47:00,
2013-02-01 03:49:00,29.4,13.0,22.54,South,188,8.0,21.0,50,0.00,,,0.00,Wunderground v.1.15,2013-02-01 10:49:00,
2013-02-01 03:55:00,29.5,13.1,22.53,WNW,301,7.0,21.0,50,0.00,,,0.00,Wunderground v.1.15,2013-02-01 10:55:00,
2013-02-01 03:59:00,29.4,13.0,22.53,West,276,6.0,21.0,50,0.00,,,0.00,Wunderground v.1.15,2013-02-01 10:59:00,
2013-02-01 04:01:00,29.3,12.9,22.53,SW,226,7.0,21.0,50,0.00,,,0.00,Wunderground v.1.15,2013-02-01 11:01:00,
2013-02-01 04:07:00,29.4,13.0,22.53,WNW,284,7.0,21.0,50,0.00,,,0.00,Wunderground v.1.15,2013-02-01 11:07:00,
2013-02-01 04:13:00,29.4,13.0,22.53,NNE,22,7.0,7.0,50,0.00,,,0.00,Wunderground v.1.15,2013-02-01 11:13:00,
2013-02-01 04:15:00,29.4,13.0,22.53,West,275,7.0,21.0,50,0.00,,,0.00,Wunderground v.1.15,2013-02-01 11:15:00,
2013-02-01 04:21:00,29.4,13.0,22.52,SSE,149,7.0,21.0,50,0.00,,,0.00,Wunderground v.1.15,2013-02-01 11:21:00,
2013-02-01 04:23:00,29.5,13.1,22.52,ENE,58,8.0,8.0,50,0.00,,,0.00,Wunderground v.1.15,2013-02-01 11:23:00,
2013-02-01 04:29:00,29.3,13.4,22.52,NNW,329,8.0,21.0,51,0.00,,,0.00,Wunderground v.1.15,2013-02-01 11:29:00,
2013-02-01 04:33:00,29.3,12.9,22.52,NW,307,7.0,7.0,50,0.00,,,0.00,Wunderground v.1.15,2013-02-01 11:33:00,
2013-02-01 04:35:00,29.3,13.4,22.52,West,263,6.0,9.0,51,0.00,,,0.00,Wunderground v.1.15,2013-02-01 11:35:00,
2013-02-01 04:37:00,29.2,13.3,22.52,SW,222,6.0,21.0,51,0.00,,,0.00,Wunderground v.1.15,2013-02-01 11:37:00,
2013-02-01 04:43:00,29.4,13.0,22.52,WSW,246,8.0,21.0,50,0.00,,,0.00,Wunderground v.1.15,2013-02-01 11:43:00,
2013-02-01 04:45:00,29.5,12.7,22.52,WSW,247,9.0,21.0,49,0.00,,,0.00,Wunderground v.1.15,2013-02-01 11:45:00,
2013-02-01 04:49:00,29.7,12.8,22.52,SSE,162,9.0,21.0,49,0.00,,,0.00,Wunderground v.1.15,2013-02-01 11:49:00,
2013-02-01 04:51:00,29.7,12.8,22.52,WSW,243,9.0,21.0,49,0.00,,,0.00,Wunderground v.1.15,2013-02-01 11:51:00,
2013-02-01 04:53:00,29.8,12.5,22.52,SSW,210,8.0,8.0,48,0.00,,,0.00,Wunderground v.1.15,2013-02-01 11:53:00,
2013-02-01 04:59:00,29.7,12.8,22.53,West,274,8.0,21.0,49,0.00,,,0.00,Wunderground v.1.15,2013-02-01 11:59:00,
2013-02-01 05:01:00,29.7,12.4,22.52,NNW,333,7.0,21.0,48,0.00,,,0.00,Wunderground v.1.15,2013-02-01 12:01:00,
2013-02-01 05:07:00,29.6,12.8,22.53,NNE,32,7.0,21.0,49,0.00,,,0.00,Wunderground v.1.15,2013-02-01 12:07:00,
2013-02-01 05:09:00,29.6,12.8,22.53,WSW,238,7.0,21.0,49,0.00,,,0.00,Wunderground v.1.15,2013-02-01 12:09:00,
2013-02-01 05:13:00,29.7,12.4,22.52,SW,226,8.0,21.0,48,0.00,,,0.00,Wunderground v.1.15,2013-02-01 12:13:00,
2013-02-01 05:19:00,29.7,12.8,22.53,WSW,255,9.0,21.0,49,0.00,,,0.00,Wunderground v.1.15,2013-02-01 12:19:00,
2013-02-01 05:21:00,29.6,12.3,22.53,WNW,282,9.0,21.0,48,0.00,,,0.00,Wunderground v.1.15,2013-02-01 12:21:00,
2013-02-01 05:25:00,29.6,12.8,22.53,SW,217,7.0,21.0,49,0.00,,,0.00,Wunderground v.1.15,2013-02-01 12:25:00,
2013-02-01 05:27:00,29.5,13.1,22.53,SW,222,7.0,21.0,50,0.00,,,0.00,Wunderground v.1.15,2013-02-01 12:27:00,
2013-02-01 05:33:00,29.4,13.0,22.53,SW,235,8.0,21.0,50,0.00,,,0.00,Wunderground v.1.15,2013-02-01 12:33:00,
2013-02-01 05:39:00,29.6,12.8,22.53,West,264,10.0,21.0,49,0.00,,,0.00,Wunderground v.1.15,2013-02-01 12:39:00,
2013-02-01 05:43:00,29.4,13.5,22.53,SW,225,12.0,21.0,51,0.00,,,0.00,Wunderground v.1.15,2013-02-01 12:43:00,
2013-02-01 05:45:00,29.4,13.5,22.53,SW,221,12.0,21.0,51,0.00,,,0.00,Wunderground v.1.15,2013-02-01 12:45:00,
2013-02-01 05:47:00,29.5,13.1,22.53,NW,322,12.0,21.0,50,0.00,,,0.00,Wunderground v.1.15,2013-02-01 12:47:00,
2013-02-01 05:51:00,29.4,13.5,22.53,WSW,248,12.0,21.0,51,0.00,,,0.00,Wunderground v.1.15,2013-02-01 12:51:00,
2013-02-01 05:53:00,29.3,14.3,22.53,SW,231,12.0,12.0,53,0.00,,,0.00,Wunderground v.1.15,2013-02-01 12:53:00,
2013-02-01 05:57:00,29.1,13.6,22.53,South,187,11.0,21.0,52,0.00,,,0.00,Wunderground v.1.15,2013-02-01 12:57:00,
2013-02-01 06:03:00,29.1,13.6,22.53,WSW,249,13.0,13.0,52,0.00,,,0.00,Wunderground v.1.15,2013-02-01 13:03:00,
2013-02-01 06:05:00,29.0,14.0,22.53,SW,236,13.0,21.0,53,0.00,,,0.00,Wunderground v.1.15,2013-02-01 13:05:00,
2013-02-01 06:07:00,29.0,14.0,22.53,SW,232,12.0,21.0,53,0.00,,,0.00,Wunderground v.1.15,2013-02-01 13:07:00,
2013-02-01 06:09:00,28.9,13.9,22.53,WSW,242,11.0,21.0,53,0.00,,,0.00,Wunderground v.1.15,2013-02-01 13:09:00,
2013-02-01 06:15:00,28.9,13.5,22.52,West,260,9.0,22.0,52,0.00,,,0.00,Wunderground v.1.15,2013-02-01 13:15:00,
2013-02-01 06:21:00,28.9,13.9,22.53,WSW,246,10.0,22.0,53,0.00,,,0.00,Wunderground v.1.15,2013-02-01 13:21:00,
2013-02-01 06:23:00,28.8,13.8,22.52,SW,217,10.0,10.0,53,0.00,,,0.00,Wunderground v.1.15,2013-02-01 13:23:00,
2013-02-01 06:27:00,28.7,13.7,22.53,SSW,204,8.0,21.0,53,0.00,,,0.00,Wunderground v.1.15,2013-02-01 13:27:00,
2013-02-01 06:31:00,28.7,13.3,22.53,West,273,6.0,21.0,52,0.00,,,0.00,Wunderground v.1.15,2013-02-01 13:31:00,
2013-02-01 06:35:00,28.7,12.8,22.53,NNE,25,5.0,9.0,51,0.00,,,0.00,Wunderground v.1.15,2013-02-01 13:35:00,
2013-02-01 06:39:00,28.8,12.9,22.53,WSW,243,5.0,21.0,51,0.00,,,0.00,Wunderground v.1.15,2013-02-01 13:39:00,
2013-02-01 06:41:00,28.9,13.0,22.54,West,280,5.0,21.0,51,0.00,,,0.00,Wunderground v.1.15,2013-02-01 13:41:00,
2013-02-01 06:45:00,29.2,12.8,22.53,SW,218,7.0,21.0,50,0.00,,,0.00,Wunderground v.1.15,2013-02-01 13:45:00,
2013-02-01 06:49:00,29.1,12.8,22.54,WSW,247,7.0,21.0,50,0.00,,,0.00,Wunderground v.1.15,2013-02-01 13:49:00,
2013-02-01 06:51:00,29.1,12.8,22.54,SW,225,7.0,21.0,50,0.00,,,0.00,Wunderground v.1.15,2013-02-01 13:51:00,
2013-02-01 06:53:00,29.0,13.1,22.54,SW,226,7.0,21.0,51,0.00,,,0.00,Wunderground v.1.15,2013-02-01 13:53:00,
2013-02-01 06:57:00,29.0,13.1,22.53,WSW,243,6.0,21.0,51,0.00,,,0.00,Wunderground v.1.15,2013-02-01 13:57:00,
2013-02-01 06:59:00,29.0,13.1,22.54,WNW,294,7.0,21.0,51,0.00,,,0.00,Wunderground v.1.15,2013-02-01 13:59:00,
2013-02-01 07:02:00,29.0,13.1,22.53,WSW,238,6.0,21.0,51,0.00,,,0.00,Wunderground v.1.15,2013-02-01 14:02:00,
2013-02-01 07:05:00,29.0,13.1,22.54,WSW,253,7.0,7.0,51,0.00,,,0.00,Wunderground v.1.15,2013-02-01 14:05:00,
2013-02-01 07:07:00,28.9,13.0,22.54,NNW,347,7.0,21.0,51,0.00,,,0.00,Wunderground v.1.15,2013-02-01 14:07:00,
2013-02-01 07:13:00,28.9,13.5,22.54,SSW,204,7.0,21.0,52,0.00,,,0.00,Wunderground v.1.15,2013-02-01 14:13:00,
2013-02-01 07:19:00,28.9,13.5,22.54,West,277,9.0,21.0,52,0.00,,,0.00,Wunderground v.1.15,2013-02-01 14:19:00,
2013-02-01 07:21:00,28.9,13.5,22.55,SSW,204,9.0,21.0,52,0.00,,,0.00,Wunderground v.1.15,2013-02-01 14:21:00,
2013-02-01 07:23:00,28.9,13.5,22.54,NNE,18,9.0,9.0,52,0.00,,,0.00,Wunderground v.1.15,2013-02-01 14:23:00,
2013-02-01 07:27:00,28.9,13.5,22.54,NE,43,7.0,21.0,52,0.00,,,0.00,Wunderground v.1.15,2013-02-01 14:27:00,
2013-02-01 07:29:00,28.9,13.5,22.55,West,259,7.0,21.0,52,0.00,,,0.00,Wunderground v.1.15,2013-02-01 14:29:00,
2013-02-01 07:35:00,29.0,13.1,22.54,South,184,9.0,9.0,51,0.00,,,0.00,Wunderground v.1.15,2013-02-01 14:35:00,
2013-02-01 07:41:00,29.0,13.1,22.55,West,260,8.0,21.0,51,0.00,,,0.00,Wunderground v.1.15,2013-02-01 14:41:00,
2013-02-01 07:45:00,28.9,13.5,22.55,WNW,287,7.0,21.0,52,0.00,,,0.00,Wunderground v.1.15,2013-02-01 14:45:00,
2013-02-01 07:47:00,28.9,13.5,22.54,SW,231,7.0,21.0,52,0.00,,,0.00,Wunderground v.1.15,2013-02-01 14:47:00,
2013-02-01 07:49:00,28.9,13.5,22.54,WSW,252,7.0,21.0,52,0.00,,,0.00,Wunderground v.1.15,2013-02-01 14:49:00,
2013-02-01 07:53:00,28.8,13.8,22.54,NNW,333,7.0,21.0,53,0.00,,,0.00,Wunderground v.1.15,2013-02-01 14:53:00,
2013-02-01 07:57:00,28.7,14.1,22.54,WSW,248,6.0,21.0,54,0.00,,,0.00,Wunderground v.1.15,2013-02-01 14:57:00,
2013-02-01 08:01:00,28.6,14.5,22.55,WSW,246,5.0,21.0,55,0.00,,,0.00,Wunderground v.1.15,2013-02-01 15:01:00,
2013-02-01 08:05:00,28.7,14.1,22.55,West,266,6.0,6.0,54,0.00,,,0.00,Wunderground v.1.15,2013-02-01 15:05:00,
2013-02-01 08:07:00,28.9,14.3,22.54,WSW,239,6.0,10.0,54,0.00,,,0.00,Wunderground v.1.15,2013-02-01 15:07:00,
2013-02-01 08:13:00,29.7,14.6,22.55,SW,231,6.0,21.0,53,0.00,,,0.00,Wunderground v.1.15,2013-02-01 15:13:00,
2013-02-01 08:15:00,29.7,14.6,22.55,SSW,212,6.0,21.0,53,0.00,,,0.00,Wunderground v.1.15,2013-02-01 15:15:00,
2013-02-01 08:21:00,30.0,14.9,22.55,WSW,250,6.0,21.0,53,0.00,,,0.00,Wunderground v.1.15,2013-02-01 15:21:00,
2013-02-01 08:23:00,30.0,14.9,22.55,West,259,6.0,6.0,53,0.00,,,0.00,Wunderground v.1.15,2013-02-01 15:23:00,
2013-02-01 08:27:00,30.3,14.8,22.55,WSW,246,4.0,21.0,52,0.00,,,0.00,Wunderground v.1.15,2013-02-01 15:27:00,
2013-02-01 08:29:00,30.4,14.9,22.55,SW,233,5.0,21.0,52,0.00,,,0.00,Wunderground v.1.15,2013-02-01 15:29:00,
2013-02-01 08:31:00,30.4,14.9,22.55,SW,231,5.0,21.0,52,0.00,,,0.00,Wunderground v.1.15,2013-02-01 15:31:00,
2013-02-01 08:37:00,30.5,14.9,22.55,SSW,208,7.0,21.0,52,0.00,,,0.00,Wunderground v.1.15,2013-02-01 15:37:00,
2013-02-01 08:41:00,30.8,14.3,22.55,SW,232,8.0,21.0,50,0.00,,,0.00,Wunderground v.1.15,2013-02-01 15:41:00,
2013-02-01 08:45:00,30.9,14.4,22.55,WSW,250,9.0,21.0,50,0.00,,,0.00,Wunderground v.1.15,2013-02-01 15:45:00,
2013-02-01 08:49:00,31.0,14.0,22.55,WSW,243,10.0,21.0,49,0.00,,,0.00,Wunderground v.1.15,2013-02-01 15:49:00,
2013-02-01 08:51:00,31.0,14.0,22.55,NNW,332,10.0,21.0,49,0.00,,,0.00,Wunderground v.1.15,2013-02-01 15:51:00,
2013-02-01 08:55:00,31.0,14.5,22.55,WSW,248,10.0,21.0,50,0.00,,,0.00,Wunderground v.1.15,2013-02-01 15:55:00,
2013-02-01 08:57:00,31.0,14.5,22.55,SW,235,10.0,21.0,50,0.00,,,0.00,Wunderground v.1.15,2013-02-01 15:57:00,
2013-02-01 09:01:00,31.1,14.6,22.54,SW,226,8.0,21.0,50,0.00,,,0.00,Wunderground v.1.15,2013-02-01 16:01:00,
2013-02-01 09:05:00,31.0,14.5,22.54,West,266,9.0,19.0,50,0.00,,,0.00,Wunderground v.1.15,2013-02-01 16:05:00,
2013-02-01 09:11:00,30.7,15.1,22.54,West,260,10.0,21.0,52,0.00,,,0.00,Wunderground v.1.15,2013-02-01 16:11:00,
2013-02-01 09:13:00,30.5,14.9,22.54,WSW,252,11.0,21.0,52,0.00,,,0.00,Wunderground v.1.15,2013-02-01 16:13:00,
2013-02-01 09:15:00,30.2,14.7,22.54,WSW,243,12.0,21.0,52,0.00,,,0.00,Wunderground v.1.15,2013-02-01 16:15:00,
2013-02-01 09:19:00,30.1,14.6,22.54,SW,236,11.0,21.0,52,0.00,,,0.00,Wunderground v.1.15,2013-02-01 16:19:00,
2013-02-01 09:21:00,30.0,14.5,22.53,West,263,12.0,21.0,52,0.00,,,0.00,Wunderground v.1.15,2013-02-01 16:21:00,
2013-02-01 09:25:00,29.9,14.4,22.53,West,274,12.0,21.0,52,0.00,,,0.00,Wunderground v.1.15,2013-02-01 16:25:00,
2013-02-01 09:27:00,30.2,14.2,22.53,SSW,204,12.0,21.0,51,0.00,,,0.00,Wunderground v.1.15,2013-02-01 16:27:00,
2013-02-01 09:31:00,30.7,14.2,22.53,SW,235,12.0,21.0,50,0.00,,,0.00,Wunderground v.1.15,2013-02-01 16:31:00,
2013-02-01 09:33:00,30.8,13.9,22.53,WSW,240,12.0,12.0,49,0.00,,,0.00,Wunderground v.1.15,2013-02-01 16:33:00,
2013-02-01 09:37:00,31.3,13.9,22.53,WSW,250,14.0,21.0,48,0.00,,,0.00,Wunderground v.1.15,2013-02-01 16:37:00,
2013-02-01 09:39:00,31.3,14.3,22.53,SW,232,14.0,21.0,49,0.00,,,0.00,Wunderground v.1.15,2013-02-01 16:39:00,
2013-02-01 09:45:00,31.8,14.3,22.52,SW,231,13.0,21.0,48,0.00,,,0.00,Wunderground v.1.15,2013-02-01 16:45:00,
2013-02-01 09:47:00,32.1,14.6,22.52,SW,225,12.0,21.0,48,0.00,,,0.00,Wunderground v.1.15,2013-02-01 16:47:00,
2013-02-01 09:49:00,32.3,14.8,22.53,NNW,327,10.0,21.0,48,0.00,,,0.00,Wunderground v.1.15,2013-02-01 16:49:00,
2013-02-01 09:53:00,32.6,14.6,22.52,NW,313,8.0,8.0,47,0.00,,,0.00,Wunderground v.1.15,2013-02-01 16:53:00,
2013-02-01 09:57:00,32.6,14.1,22.52,SSW,212,9.0,21.0,46,0.00,,,0.00,Wunderground v.1.15,2013-02-01 16:57:00,
2013-02-01 10:01:00,32.3,13.8,22.53,SW,233,10.0,21.0,46,0.00,,,0.00,Wunderground v.1.15,2013-02-01 17:01:00,
2013-02-01 10:03:00,32.2,13.7,22.53,WSW,252,10.0,10.0,46,0.00,,,0.00,Wunderground v.1.15,2013-02-01 17:03:00,
2013-02-01 10:09:00,32.3,14.3,22.52,WSW,238,10.0,21.0,47,0.00,,,0.00,Wunderground v.1.15,2013-02-01 17:09:00,
2013-02-01 10:11:00,32.3,14.8,22.52,NNE,25,11.0,21.0,48,0.00,,,0.00,Wunderground v.1.15,2013-02-01 17:11:00,
2013-02-01 10:15:00,32.2,15.2,22.53,WSW,252,12.0,21.0,49,0.00,,,0.00,Wunderground v.1.15,2013-02-01 17:15:00,
2013-02-01 10:17:00,32.3,14.3,22.52,SW,233,13.0,21.0,47,0.00,,,0.00,Wunderground v.1.15,2013-02-01 17:17:00,
2013-02-01 10:19:00,32.3,14.8,22.52,West,267,14.0,21.0,48,0.00,,,0.00,Wunderground v.1.15,2013-02-01 17:19:00,
2013-02-01 10:23:00,32.5,14.5,22.53,WSW,239,14.0,21.0,47,0.00,,,0.00,Wunderground v.1.15,2013-02-01 17:23:00,
2013-02-01 10:27:00,32.7,14.7,22.53,SW,225,14.0,21.0,47,0.00,,,0.00,Wunderground v.1.15,2013-02-01 17:27:00,
2013-02-01 10:31:00,33.1,14.5,22.53,SW,215,13.0,22.0,46,0.00,,,0.00,Wunderground v.1.15,2013-02-01 17:31:00,
2013-02-01 10:33:00,33.0,14.9,22.53,WSW,250,12.0,21.0,47,0.00,,,0.00,Wunderground v.1.15,2013-02-01 17:33:00,
2013-02-01 10:37:00,32.9,15.8,22.53,SW,232,10.0,21.0,49,0.00,,,0.00,Wunderground v.1.15,2013-02-01 17:37:00,
2013-02-01 10:39:00,32.7,15.6,22.53,WSW,239,11.0,21.0,49,0.00,,,0.00,Wunderground v.1.15,2013-02-01 17:39:00,
2013-02-01 10:43:00,32.7,15.6,22.52,West,263,12.0,21.0,49,0.00,,,0.00,Wunderground v.1.15,2013-02-01 17:43:00,
2013-02-01 10:45:00,32.6,15.5,22.51,WSW,256,12.0,21.0,49,0.00,,,0.00,Wunderground v.1.15,2013-02-01 17:45:00,
2013-02-01 10:49:00,32.9,15.3,22.51,West,280,11.0,21.0,48,0.00,,,0.00,Wunderground v.1.15,2013-02-01 17:49:00,
2013-02-01 10:53:00,33.3,15.2,22.52,NW,319,10.0,10.0,47,0.00,,,0.00,Wunderground v.1.15,2013-02-01 17:53:00,
2013-02-01 10:55:00,33.5,15.4,22.51,WSW,252,9.0,13.0,47,0.00,,,0.00,Wunderground v.1.15,2013-02-01 17:55:00,
2013-02-01 10:57:00,33.6,15.0,22.52,NW,304,9.0,21.0,46,0.00,,,0.00,Wunderground v.1.15,2013-02-01 17:57:00,
2013-02-01 11:01:00,33.7,15.6,22.52,WNW,290,10.0,21.0,47,0.00,,,0.00,Wunderground v.1.15,2013-02-01 18:01:00,
2013-02-01 11:07:00,33.5,16.8,22.52,NNW,345,10.0,21.0,50,0.00,,,0.00,Wunderground v.1.15,2013-02-01 18:07:00,
2013-02-01 11:09:00,33.4,16.7,22.52,WSW,245,10.0,21.0,50,0.00,,,0.00,Wunderground v.1.15,2013-02-01 18:09:00,
2013-02-01 11:13:00,33.3,17.1,22.53,WSW,243,9.0,21.0,51,0.00,,,0.00,Wunderground v.1.15,2013-02-01 18:13:00,
2013-02-01 11:19:00,32.9,17.6,22.53,WSW,239,9.0,21.0,53,0.00,,,0.00,Wunderground v.1.15,2013-02-01 18:19:00,
2013-02-01 11:21:00,32.7,17.4,22.52,South,184,10.0,21.0,53,0.00,,,0.00,Wunderground v.1.15,2013-02-01 18:21:00,
2013-02-01 11:23:00,32.9,17.6,22.53,West,259,10.0,21.0,53,0.00,,,0.00,Wunderground v.1.15,2013-02-01 18:23:00,
2013-02-01 11:29:00,32.8,18.0,22.53,ESE,117,10.0,21.0,54,0.00,,,0.00,Wunderground v.1.15,2013-02-01 18:29:00,
2013-02-01 11:31:00,32.9,18.1,22.52,West,259,9.0,21.0,54,0.00,,,0.00,Wunderground v.1.15,2013-02-01 18:31:00,
2013-02-01 11:33:00,33.0,16.8,22.53,SSW,204,9.0,9.0,51,0.00,,,0.00,Wunderground v.1.15,2013-02-01 18:33:00,
2013-02-01 11:35:00,33.0,17.3,22.53,SSW,212,9.0,13.0,52,0.00,,,0.00,Wunderground v.1.15,2013-02-01 18:35:00,
2013-02-01 11:37:00,33.1,16.9,22.53,WSW,246,9.0,21.0,51,0.00,,,0.00,Wunderground v.1.15,2013-02-01 18:37:00,
2013-02-01 11:41:00,33.0,18.1,22.53,WSW,238,9.0,21.0,54,0.00,,,0.00,Wunderground v.1.15,2013-02-01 18:41:00,
2013-02-01 11:47:00,33.3,17.5,22.53,West,259,7.0,21.0,52,0.00,,,0.00,Wunderground v.1.15,2013-02-01 18:47:00,
2013-02-01 11:53:00,33.3,18.0,22.53,WSW,248,7.0,21.0,53,0.00,,,0.00,Wunderground v.1.15,2013-02-01 18:53:00,
2013-02-01 11:57:00,32.7,17.0,22.53,NW,309,8.0,21.0,52,0.00,,,0.00,Wunderground v.1.15,2013-02-01 18:57:00,
2013-02-01 12:01:00,32.3,17.1,22.53,South,184,9.0,21.0,53,0.00,,,0.00,Wunderground v.1.15,2013-02-01 19:01:00,
2013-02-01 12:05:00,32.5,15.9,22.53,WSW,243,10.0,22.0,50,0.00,,,0.00,Wunderground v.1.15,2013-02-01 19:05:00,
2013-02-01 12:07:00,32.5,16.4,22.53,SW,224,10.0,22.0,51,0.00,,,0.00,Wunderground v.1.15,2013-02-01 19:07:00,
2013-02-01 12:11:00,32.9,16.7,22.53,West,278,9.0,22.0,51,0.00,,,0.00,Wunderground v.1.15,2013-02-01 19:11:00,
2013-02-01 12:13:00,33.1,16.9,22.53,SSW,202,9.0,9.0,51,0.00,,,0.00,Wunderground v.1.15,2013-02-01 19:13:00,
2013-02-01 12:15:00,33.3,16.2,22.53,WSW,239,8.0,21.0,49,0.00,,,0.00,Wunderground v.1.15,2013-02-01 19:15:00,
2013-02-01 12:19:00,33.2,17.5,22.53,West,270,7.0,21.0,52,0.00,,,0.00,Wunderground v.1.15,2013-02-01 19:19:00,
2013-02-01 12:21:00,33.2,17.5,22.53,SSW,198,8.0,21.0,52,0.00,,,0.00,Wunderground v.1.15,2013-02-01 19:21:00,
2013-02-01 12:23:00,33.4,17.2,22.53,SSW,198,8.0,21.0,51,0.00,,,0.00,Wunderground v.1.15,2013-02-01 19:23:00,
2013-02-01 12:27:00,33.7,17.0,22.53,SW,225,7.0,21.0,50,0.00,,,0.00,Wunderground v.1.15,2013-02-01 19:27:00,
2013-02-01 12:29:00,33.6,16.5,22.52,WSW,252,8.0,21.0,49,0.00,,,0.00,Wunderground v.1.15,2013-02-01 19:29:00,
2013-02-01 12:31:00,33.4,15.3,22.52,SW,233,8.0,21.0,47,0.00,,,0.00,Wunderground v.1.15,2013-02-01 19:31:00,
2013-02-01 12:33:00,33.4,15.8,22.53,WSW,256,9.0,21.0,48,0.00,,,0.00,Wunderground v.1.15,2013-02-01 19:33:00,
2013-02-01 12:37:00,33.4,15.8,22.53,West,264,10.0,21.0,48,0.00,,,0.00,Wunderground v.1.15,2013-02-01 19:37:00,
2013-02-01 12:39:00,33.5,15.9,22.53,SW,236,9.0,21.0,48,0.00,,,0.00,Wunderground v.1.15,2013-02-01 19:39:00,
2013-02-01 12:45:00,33.0,16.8,22.53,SSW,200,8.0,21.0,51,0.00,,,0.00,Wunderground v.1.15,2013-02-01 19:45:00,
2013-02-01 12:47:00,33.0,16.4,22.53,WSW,239,8.0,21.0,50,0.00,,,0.00,Wunderground v.1.15,2013-02-01 19:47:00,
2013-02-01 12:51:00,33.3,15.2,22.53,SW,236,9.0,21.0,47,0.00,,,0.00,Wunderground v.1.15,2013-02-01 19:51:00,
2013-02-01 12:55:00,33.3,15.7,22.53,WSW,250,8.0,21.0,48,0.00,,,0.00,Wunderground v.1.15,2013-02-01 19:55:00,
2013-02-01 12:57:00,33.4,15.8,22.53,NW,319,8.0,21.0,48,0.00,,,0.00,Wunderground v.1.15,2013-02-01 19:57:00,
2013-02-01 12:59:00,33.2,15.6,22.53,SW,214,7.0,21.0,48,0.00,,,0.00,Wunderground v.1.15,2013-02-01 19:59:00,
2013-02-01 13:05:00,32.7,14.7,22.53,SSW,208,9.0,21.0,47,0.00,,,0.00,Wunderground v.1.15,2013-02-01 20:05:00,
2013-02-01 13:11:00,32.6,15.5,22.53,South,176,11.0,21.0,49,0.00,,,0.00,Wunderground v.1.15,2013-02-01 20:11:00,
2013-02-01 13:15:00,32.9,14.4,22.53,WSW,252,10.0,11.0,46,0.00,,,0.00,Wunderground v.1.15,2013-02-01 20:15:00,
2013-02-01 13:21:00,32.7,14.2,22.53,WSW,246,10.0,21.0,46,0.00,,,0.00,Wunderground v.1.15,2013-02-01 20:21:00,
2013-02-01 13:28:00,32.1,15.1,22.54,West,269,12.0,21.0,49,0.00,,,0.00,Wunderground v.1.15,2013-02-01 20:28:00,
2013-02-01 13:29:00,32.1,15.1,22.53,SW,225,12.0,21.0,49,0.00,,,0.00,Wunderground v.1.15,2013-02-01 20:29:00,
2013-02-01 13:31:00,32.1,14.6,22.53,SW,236,11.0,21.0,48,0.00,,,0.00,Wunderground v.1.15,2013-02-01 20:31:00,
2013-02-01 13:33:00,32.1,15.1,22.53,SSW,212,11.0,11.0,49,0.00,,,0.00,Wunderground v.1.15,2013-02-01 20:33:00,
2013-02-01 13:37:00,32.0,14.5,22.53,SSE,161,10.0,21.0,48,0.00,,,0.00,Wunderground v.1.15,2013-02-01 20:37:00,
2013-02-01 13:39:00,32.1,14.6,22.53,SW,236,10.0,21.0,48,0.00,,,0.00,Wunderground v.1.15,2013-02-01 20:39:00,
2013-02-01 13:41:00,32.3,14.3,22.53,SW,230,9.0,21.0,47,0.00,,,0.00,Wunderground v.1.15,2013-02-01 20:41:00,
2013-02-01 13:43:00,32.4,14.4,22.53,SSW,195,9.0,21.0,47,0.00,,,0.00,Wunderground v.1.15,2013-02-01 20:43:00,
2013-02-01 13:49:00,32.6,13.6,22.53,WSW,252,7.0,21.0,45,0.00,,,0.00,Wunderground v.1.15,2013-02-01 20:49:00,
2013-02-01 13:51:00,32.6,14.1,22.53,SW,221,7.0,21.0,46,0.00,,,0.00,Wunderground v.1.15,2013-02-01 20:51:00,
2013-02-01 13:57:00,32.6,14.1,22.53,WSW,242,7.0,21.0,46,0.00,,,0.00,Wunderground v.1.15,2013-02-01 20:57:00,
2013-02-01 13:59:00,32.5,14.0,22.53,NW,307,6.0,21.0,46,0.00,,,0.00,Wunderground v.1.15,2013-02-01 20:59:00,
2013-02-01 14:03:00,32.7,13.2,22.53,West,275,6.0,21.0,44,0.00,,,0.00,Wunderground v.1.15,2013-02-01 21:03:00,
2013-02-01 14:05:00,32.9,12.8,22.53,North,355,6.0,21.0,43,0.00,,,0.00,Wunderground v.1.15,2013-02-01 21:05:00,
2013-02-01 14:07:00,33.0,12.9,22.53,SW,236,6.0,21.0,43,0.00,,,0.00,Wunderground v.1.15,2013-02-01 21:07:00,
2013-02-01 14:09:00,33.1,12.5,22.53,SW,223,6.0,21.0,42,0.00,,,0.00,Wunderground v.1.15,2013-02-01 21:09:00,
2013-02-01 14:13:00,33.1,13.0,22.53,WSW,243,6.0,21.0,43,0.00,,,0.00,Wunderground v.1.15,2013-02-01 21:13:00,
2013-02-01 14:15:00,33.0,12.4,22.53,WSW,243,7.0,21.0,42,0.00,,,0.00,Wunderground v.1.15,2013-02-01 21:15:00,
2013-02-01 14:19:00,33.1,12.5,22.53,NNW,327,8.0,21.0,42,0.00,,,0.00,Wunderground v.1.15,2013-02-01 21:19:00,
2013-02-01 14:21:00,33.2,12.0,22.52,SSW,194,7.0,21.0,41,0.00,,,0.00,Wunderground v.1.15,2013-02-01 21:21:00,
2013-02-01 14:23:00,33.2,12.0,22.53,SSW,198,7.0,7.0,41,0.00,,,0.00,Wunderground v.1.15,2013-02-01 21:23:00,
2013-02-01 14:29:00,33.2,12.0,22.53,WSW,243,6.0,21.0,41,0.00,,,0.00,Wunderground v.1.15,2013-02-01 21:29:00,
2013-02-01 14:33:00,33.3,11.5,22.53,NNW,338,7.0,7.0,40,0.00,,,0.00,Wunderground v.1.15,2013-02-01 21:33:00,
2013-02-01 14:37:00,33.3,11.5,22.53,West,277,6.0,21.0,40,0.00,,,0.00,Wunderground v.1.15,2013-02-01 21:37:00,
2013-02-01 14:39:00,33.2,11.5,22.53,West,262,6.0,21.0,40,0.00,,,0.00,Wunderground v.1.15,2013-02-01 21:39:00,
2013-02-01 14:41:00,33.1,10.8,22.53,SSW,211,6.0,21.0,39,0.00,,,0.00,Wunderground v.1.15,2013-02-01 21:41:00,
2013-02-01 14:43:00,33.1,10.8,22.53,SW,225,6.0,6.0,39,0.00,,,0.00,Wunderground v.1.15,2013-02-01 21:43:00,
2013-02-01 14:49:00,32.9,10.6,22.53,NNW,339,6.0,21.0,39,0.00,,,0.00,Wunderground v.1.15,2013-02-01 21:49:00,
2013-02-01 14:51:00,32.9,11.2,22.53,NW,313,5.0,21.0,40,0.00,,,0.00,Wunderground v.1.15,2013-02-01 21:51:00,
2013-02-01 14:55:00,33.0,10.1,22.53,WNW,301,4.0,21.0,38,0.00,,,0.00,Wunderground v.1.15,2013-02-01 21:55:00,
2013-02-01 14:59:00,33.1,10.2,22.53,WSW,240,4.0,21.0,38,0.00,,,0.00,Wunderground v.1.15,2013-02-01 21:59:00,
2013-02-01 15:03:00,33.1,10.2,22.54,SSW,208,5.0,5.0,38,0.00,,,0.00,Wunderground v.1.15,2013-02-01 22:03:00,
2013-02-01 15:07:00,33.1,10.2,22.54,WSW,245,5.0,21.0,38,0.00,,,0.00,Wunderground v.1.15,2013-02-01 22:07:00,
2013-02-01 15:09:00,33.1,10.2,22.53,West,281,6.0,21.0,38,0.00,,,0.00,Wunderground v.1.15,2013-02-01 22:09:00,
2013-02-01 15:13:00,33.0,10.7,22.54,West,259,5.0,21.0,39,0.00,,,0.00,Wunderground v.1.15,2013-02-01 22:13:00,
2013-02-01 15:17:00,32.9,10.6,22.54,SSE,148,5.0,21.0,39,0.00,,,0.00,Wunderground v.1.15,2013-02-01 22:17:00,
2013-02-01 15:19:00,32.8,11.1,22.54,WSW,249,6.0,21.0,40,0.00,,,0.00,Wunderground v.1.15,2013-02-01 22:19:00,
2013-02-01 15:25:00,32.8,10.5,22.54,WSW,248,5.0,21.0,39,0.00,,,0.00,Wunderground v.1.15,2013-02-01 22:25:00,
2013-02-01 15:29:00,32.7,10.4,22.54,West,262,6.0,21.0,39,0.00,,,0.00,Wunderground v.1.15,2013-02-01 22:29:00,
2013-02-01 15:33:00,32.7,11.0,22.53,WNW,294,6.0,6.0,40,0.00,,,0.00,Wunderground v.1.15,2013-02-01 22:33:00,
2013-02-01 15:35:00,32.7,10.4,22.54,SSE,150,5.0,21.0,39,0.00,,,0.00,Wunderground v.1.15,2013-02-01 22:35:00,
2013-02-01 15:37:00,32.7,11.0,22.54,South,172,5.0,21.0,40,0.00,,,0.00,Wunderground v.1.15,2013-02-01 22:37:00,
2013-02-01 15:43:00,32.8,11.1,22.54,West,274,6.0,21.0,40,0.00,,,0.00,Wunderground v.1.15,2013-02-01 22:43:00,
2013-02-01 15:45:00,32.9,10.0,22.53,West,280,7.0,21.0,38,0.00,,,0.00,Wunderground v.1.15,2013-02-01 22:45:00,
2013-02-01 15:47:00,32.9,10.0,22.53,SW,231,7.0,21.0,38,0.00,,,0.00,Wunderground v.1.15,2013-02-01 22:47:00,
2013-02-01 15:49:00,33.0,10.1,22.54,SW,228,7.0,21.0,38,0.00,,,0.00,Wunderground v.1.15,2013-02-01 22:49:00,
2013-02-01 15:51:00,32.9,10.0,22.54,WSW,238,8.0,21.0,38,0.00,,,0.00,Wunderground v.1.15,2013-02-01 22:51:00,
2013-02-01 15:53:00,32.9,10.0,22.54,WNW,287,8.0,21.0,38,0.00,,,0.00,Wunderground v.1.15,2013-02-01 22:53:00,
2013-02-01 15:55:00,32.8,10.5,22.54,SW,235,8.0,21.0,39,0.00,,,0.00,Wunderground v.1.15,2013-02-01 22:55:00,
2013-02-01 15:57:00,32.8,10.5,22.54,WNW,298,8.0,21.0,39,0.00,,,0.00,Wunderground v.1.15,2013-02-01 22:57:00,
2013-02-01 15:59:00,32.7,11.0,22.53,WNW,284,8.0,21.0,40,0.00,,,0.00,Wunderground v.1.15,2013-02-01 22:59:00,
2013-02-01 16:03:00,32.5,10.3,22.53,SW,218,7.0,7.0,39,0.00,,,0.00,Wunderground v.1.15,2013-02-01 23:03:00,
2013-02-01 16:07:00,32.5,9.7,22.53,WSW,253,7.0,21.0,38,0.00,,,0.00,Wunderground v.1.15,2013-02-01 23:07:00,
2013-02-01 16:09:00,32.5,9.7,22.53,West,274,7.0,21.0,38,0.00,,,0.00,Wunderground v.1.15,2013-02-01 23:09:00,
2013-02-01 16:11:00,32.5,9.7,22.53,NNE,33,7.0,21.0,38,0.00,,,0.00,Wunderground v.1.15,2013-02-01 23:11:00,
2013-02-01 16:15:00,32.5,10.3,22.54,WSW,243,7.0,21.0,39,0.00,,,0.00,Wunderground v.1.15,2013-02-01 23:15:00,
2013-02-01 16:19:00,32.3,11.2,22.54,SW,217,6.0,21.0,41,0.00,,,0.00,Wunderground v.1.15,2013-02-01 23:19:00,
2013-02-01 16:21:00,32.2,11.1,22.54,WSW,250,7.0,21.0,41,0.00,,,0.00,Wunderground v.1.15,2013-02-01 23:21:00,
2013-02-01 16:23:00,32.2,11.1,22.54,ENE,70,7.0,21.0,41,0.00,,,0.00,Wunderground v.1.15,2013-02-01 23:23:00,
2013-02-01 16:27:00,32.0,11.5,22.53,East,86,8.0,21.0,42,0.00,,,0.00,Wunderground v.1.15,2013-02-01 23:27:00,
2013-02-01 16:29:00,31.9,11.4,22.53,WNW,291,8.0,21.0,42,0.00,,,0.00,Wunderground v.1.15,2013-02-01 23:29:00,
2013-02-01 16:35:00,31.6,11.6,22.53,NNW,336,7.0,21.0,43,0.00,,,0.00,Wunderground v.1.15,2013-02-01 23:35:00,
2013-02-01 16:41:00,31.4,11.5,22.53,WSW,243,7.0,21.0,43,0.00,,,0.00,Wunderground v.1.15,2013-02-01 23:41:00,
2013-02-01 16:43:00,31.4,11.5,22.53,SW,236,7.0,21.0,43,0.00,,,0.00,Wunderground v.1.15,2013-02-01 23:43:00,
2013-02-01 16:45:00,31.3,11.9,22.53,West,260,7.0,21.0,44,0.00,,,0.00,Wunderground v.1.15,2013-02-01 23:45:00,
2013-02-01 16:49:00,31.2,11.3,22.53,NW,307,8.0,21.0,43,0.00,,,0.00,Wunderground v.1.15,2013-02-01 23:49:00,
2013-02-01 16:51:00,31.2,11.3,22.53,SSW,207,8.0,21.0,43,0.00,,,0.00,Wunderground v.1.15,2013-02-01 23:51:00,
2013-02-01 16:53:00,31.3,11.4,22.53,West,276,8.0,8.0,43,0.00,,,0.00,Wunderground v.1.15,2013-02-01 23:53:00,
2013-02-01 16:55:00,31.3,11.4,22.53,SSW,207,8.0,13.0,43,0.00,,,0.00,Wunderground v.1.15,2013-02-01 23:55:00,
2013-02-01 16:57:00,31.2,11.8,22.53,SW,225,7.0,21.0,44,0.00,,,0.00,Wunderground v.1.15,2013-02-01 23:57:00,
2013-02-01 16:59:00,31.2,11.8,22.53,SSW,207,6.0,21.0,44,0.00,,,0.00,Wunderground v.1.15,2013-02-01 23:59:00,
2013-02-01 17:03:00,31.0,11.6,22.53,WSW,250,5.0,5.0,44,0.00,,,0.00,Wunderground v.1.15,2013-02-02 00:03:00,
2013-02-01 17:09:00,30.9,11.5,22.53,SSW,193,5.0,21.0,44,0.00,,,0.00,Wunderground v.1.15,2013-02-02 00:09:00,
2013-02-01 17:11:00,30.8,11.4,22.53,South,190,6.0,21.0,44,0.00,,,0.00,Wunderground v.1.15,2013-02-02 00:11:00,
2013-02-01 17:17:00,30.8,11.4,22.53,SSW,194,6.0,21.0,44,0.00,,,0.00,Wunderground v.1.15,2013-02-02 00:17:00,
2013-02-01 17:21:00,30.7,11.3,22.53,SE,131,5.0,21.0,44,0.00,,,0.00,Wunderground v.1.15,2013-02-02 00:21:00,
2013-02-01 17:23:00,30.6,11.7,22.53,SW,235,6.0,21.0,45,0.00,,,0.00,Wunderground v.1.15,2013-02-02 00:23:00,
2013-02-01 17:27:00,30.6,11.7,22.52,WSW,239,8.0,21.0,45,0.00,,,0.00,Wunderground v.1.15,2013-02-02 00:27:00,
2013-02-01 17:29:00,30.5,11.7,22.53,West,266,9.0,21.0,45,0.00,,,0.00,Wunderground v.1.15,2013-02-02 00:29:00,
2013-02-01 17:33:00,30.4,12.1,22.53,SSW,208,10.0,22.0,46,0.00,,,0.00,Wunderground v.1.15,2013-02-02 00:33:00,
2013-02-01 17:35:00,30.4,11.6,22.53,SW,236,10.0,22.0,45,0.00,,,0.00,Wunderground v.1.15,2013-02-02 00:35:00,
2013-02-01 17:41:00,30.4,11.6,22.53,SW,236,11.0,22.0,45,0.00,,,0.00,Wunderground v.1.15,2013-02-02 00:41:00,
2013-02-01 17:43:00,30.4,12.1,22.53,WSW,243,11.0,21.0,46,0.00,,,0.00,Wunderground v.1.15,2013-02-02 00:43:00,
2013-02-01 17:49:00,30.3,12.0,22.53,North,6,9.0,21.0,46,0.00,,,0.00,Wunderground v.1.15,2013-02-02 00:49:00,
2013-02-01 17:51:00,30.2,11.9,22.53,SSW,207,9.0,21.0,46,0.00,,,0.00,Wunderground v.1.15,2013-02-02 00:51:00,
2013-02-01 17:53:00,30.3,12.0,22.54,SSE,150,9.0,9.0,46,0.00,,,0.00,Wunderground v.1.15,2013-02-02 00:53:00,
2013-02-01 17:55:00,30.3,12.0,22.54,West,269,9.0,14.0,46,0.00,,,0.00,Wunderground v.1.15,2013-02-02 00:55:00,
2013-02-01 17:59:00,30.4,11.6,22.54,SW,233,10.0,21.0,45,0.00,,,0.00,Wunderground v.1.15,2013-02-02 00:59:00,
2013-02-01 18:03:00,30.4,11.6,22.54,WSW,239,11.0,21.0,45,0.00,,,0.00,Wunderground v.1.15,2013-02-02 01:03:00,
2013-02-01 18:05:00,30.5,11.7,22.54,NNW,327,11.0,21.0,45,0.00,,,0.00,Wunderground v.1.15,2013-02-02 01:05:00,
2013-02-01 18:07:00,30.5,12.2,22.54,WSW,252,11.0,21.0,46,0.00,,,0.00,Wunderground v.1.15,2013-02-02 01:07:00,
2013-02-01 18:09:00,30.5,12.2,22.54,SSW,211,12.0,21.0,46,0.00,,,0.00,Wunderground v.1.15,2013-02-02 01:09:00,
2013-02-01 18:13:00,30.4,12.1,22.54,SW,225,12.0,12.0,46,0.00,,,0.00,Wunderground v.1.15,2013-02-02 01:13:00,
2013-02-01 18:19:00,30.3,12.0,22.54,SW,231,11.0,21.0,46,0.00,,,0.00,Wunderground v.1.15,2013-02-02 01:19:00,
2013-02-01 18:23:00,30.5,11.7,22.54,SW,224,10.0,22.0,45,0.00,,,0.00,Wunderground v.1.15,2013-02-02 01:23:00,
2013-02-01 18:25:00,30.5,11.7,22.55,NW,321,11.0,22.0,45,0.00,,,0.00,Wunderground v.1.15,2013-02-02 01:25:00,
2013-02-01 18:27:00,30.5,12.2,22.54,NW,313,12.0,22.0,46,0.00,,,0.00,Wunderground v.1.15,2013-02-02 01:27:00,
2013-02-01 18:33:00,30.3,12.5,22.54,SW,214,12.0,21.0,47,0.00,,,0.00,Wunderground v.1.15,2013-02-02 01:33:00,
2013-02-01 18:35:00,30.3,12.5,22.55,WSW,248,13.0,21.0,47,0.00,,,0.00,Wunderground v.1.15,2013-02-02 01:35:00,
2013-02-01 18:39:00,30.2,12.8,22.55,SSW,211,12.0,21.0,48,0.00,,,0.00,Wunderground v.1.15,2013-02-02 01:39:00,
2013-02-01 18:43:00,30.1,13.2,22.55,WSW,253,13.0,21.0,49,0.00,,,0.00,Wunderground v.1.15,2013-02-02 01:43:00,
2013-02-01 18:45:00,30.0,12.7,22.56,SSW,204,12.0,21.0,48,0.00,,,0.00,Wunderground v.1.15,2013-02-02 01:45:00,
2013-02-01 18:47:00,30.0,13.1,22.55,SW,235,13.0,21.0,49,0.00,,,0.00,Wunderground v.1.15,2013-02-02 01:47:00,
2013-02-01 18:49:00,30.0,13.1,22.55,SW,226,14.0,21.0,49,0.00,,,0.00,Wunderground v.1.15,2013-02-02 01:49:00,
2013-02-01 18:53:00,29.8,13.4,22.56,WSW,240,13.0,21.0,50,0.00,,,0.00,Wunderground v.1.15,2013-02-02 01:53:00,
2013-02-01 18:55:00,29.7,13.8,22.56,SW,236,13.0,21.0,51,0.00,,,0.00,Wunderground v.1.15,2013-02-02 01:55:00,
2013-02-01 19:01:00,29.4,13.9,22.56,SW,229,13.0,21.0,52,0.00,,,0.00,Wunderground v.1.15,2013-02-02 02:01:00,
2013-02-01 19:03:00,29.4,14.4,22.57,NNE,30,12.0,21.0,53,0.00,,,0.00,Wunderground v.1.15,2013-02-02 02:03:00,
2013-02-01 19:09:00,29.3,14.3,22.56,NNE,29,12.0,21.0,53,0.00,,,0.00,Wunderground v.1.15,2013-02-02 02:09:00,
2013-02-01 19:11:00,29.3,14.3,22.56,SW,225,11.0,21.0,53,0.00,,,0.00,Wunderground v.1.15,2013-02-02 02:11:00,
2013-02-01 19:15:00,29.3,14.3,22.57,WSW,253,11.0,22.0,53,0.00,,,0.00,Wunderground v.1.15,2013-02-02 02:15:00,
2013-02-01 19:21:00,29.1,15.3,22.57,SW,232,11.0,22.0,56,0.00,,,0.00,Wunderground v.1.15,2013-02-02 02:21:00,
2013-02-01 19:23:00,29.0,15.2,22.56,SW,221,11.0,21.0,56,0.00,,,0.00,Wunderground v.1.15,2013-02-02 02:23:00,
2013-02-01 19:25:00,29.1,14.5,22.56,NW,304,11.0,21.0,54,0.00,,,0.00,Wunderground v.1.15,2013-02-02 02:25:00,
2013-02-01 19:31:00,29.2,14.6,22.56,WSW,239,12.0,31.0,54,0.00,,,0.00,Wunderground v.1.15,2013-02-02 02:31:00,
2013-02-01 19:33:00,29.2,15.4,22.56,NNW,343,12.0,12.0,56,0.00,,,0.00,Wunderground v.1.15,2013-02-02 02:33:00,
2013-02-01 19:37:00,28.9,15.2,22.56,West,269,11.0,21.0,56,0.00,,,0.00,Wunderground v.1.15,2013-02-02 02:37:00,
2013-02-01 19:41:00,28.8,15.5,22.56,WSW,240,11.0,21.0,57,0.00,,,0.00,Wunderground v.1.15,2013-02-02 02:41:00,
2013-02-01 19:43:00,28.7,15.0,22.56,East,98,10.0,10.0,56,0.00,,,0.00,Wunderground v.1.15,2013-02-02 02:43:00,
2013-02-01 19:45:00,28.8,14.6,22.56,SSW,197,9.0,17.0,55,0.00,,,0.00,Wunderground v.1.15,2013-02-02 02:45:00,
2013-02-01 19:51:00,29.0,14.8,22.56,NW,317,8.0,21.0,55,0.00,,,0.00,Wunderground v.1.15,2013-02-02 02:51:00,
2013-02-01 19:53:00,29.0,14.8,22.56,SW,221,9.0,9.0,55,0.00,,,0.00,Wunderground v.1.15,2013-02-02 02:53:00,
2013-02-01 19:55:00,29.0,14.8,22.57,SW,233,9.0,21.0,55,0.00,,,0.00,Wunderground v.1.15,2013-02-02 02:55:00,
2013-02-01 20:01:00,29.0,14.4,22.57,West,270,8.0,21.0,54,0.00,,,0.00,Wunderground v.1.15,2013-02-02 03:01:00,
2013-02-01 20:05:00,29.1,14.1,22.57,South,189,7.0,21.0,53,0.00,,,0.00,Wunderground v.1.15,2013-02-02 03:05:00,
2013-02-01 20:09:00,29.4,13.9,22.57,SW,231,9.0,21.0,52,0.00,,,0.00,Wunderground v.1.15,2013-02-02 03:09:00,
2013-02-01 20:13:00,29.4,13.5,22.57,West,267,11.0,11.0,51,0.00,,,0.00,Wunderground v.1.15,2013-02-02 03:13:00,
2013-02-01 20:15:00,29.4,13.5,22.58,SW,217,10.0,21.0,51,0.00,,,0.00,Wunderground v.1.15,2013-02-02 03:15:00,
2013-02-01 20:19:00,29.4,13.5,22.58,NNW,327,8.0,21.0,51,0.00,,,0.00,Wunderground v.1.15,2013-02-02 03:19:00,
2013-02-01 20:21:00,29.4,13.9,22.58,WNW,297,8.0,21.0,52,0.00,,,0.00,Wunderground v.1.15,2013-02-02 03:21:00,
2013-02-01 20:25:00,29.4,13.5,22.58,SW,232,8.0,21.0,51,0.00,,,0.00,Wunderground v.1.15,2013-02-02 03:25:00,
2013-02-01 20:29:00,29.4,13.5,22.59,West,274,8.0,21.0,51,0.00,,,0.00,Wunderground v.1.15,2013-02-02 03:29:00,
2013-02-01 20:31:00,29.4,13.5,22.59,WSW,243,8.0,21.0,51,0.00,,,0.00,Wunderground v.1.15,2013-02-02 03:31:00,
2013-02-01 20:35:00,29.5,13.1,22.58,WSW,240,8.0,21.0,50,0.00,,,0.00,Wunderground v.1.15,2013-02-02 03:35:00,
2013-02-01 20:37:00,29.6,12.8,22.59,WSW,248,8.0,21.0,49,0.00,,,0.00,Wunderground v.1.15,2013-02-02 03:37:00,
2013-02-01 20:41:00,29.6,12.8,22.59,SSW,200,9.0,21.0,49,0.00,,,0.00,Wunderground v.1.15,2013-02-02 03:41:00,
2013-02-01 20:43:00,29.6,12.8,22.59,WSW,240,8.0,8.0,49,0.00,,,0.00,Wunderground v.1.15,2013-02-02 03:43:00,
2013-02-01 20:45:00,29.6,12.3,22.59,West,277,9.0,15.0,48,0.00,,,0.00,Wunderground v.1.15,2013-02-02 03:45:00,
2013-02-01 20:47:00,29.6,12.3,22.59,SSW,204,8.0,21.0,48,0.00,,,0.00,Wunderground v.1.15,2013-02-02 03:47:00,
2013-02-01 20:51:00,29.6,11.3,22.59,WSW,249,8.0,21.0,46,0.00,,,0.00,Wunderground v.1.15,2013-02-02 03:51:00,
2013-02-01 20:57:00,29.8,11.0,22.59,South,179,8.0,21.0,45,0.00,,,0.00,Wunderground v.1.15,2013-02-02 03:57:00,
2013-02-01 21:01:00,30.0,11.2,22.59,West,280,9.0,21.0,45,0.00,,,0.00,Wunderground v.1.15,2013-02-02 04:01:00,
2013-02-01 21:05:00,30.0,11.2,22.60,WSW,245,9.0,9.0,45,0.00,,,0.00,Wunderground v.1.15,2013-02-02 04:05:00,
2013-02-01 21:07:00,30.0,11.7,22.60,NW,326,9.0,21.0,46,0.00,,,0.00,Wunderground v.1.15,2013-02-02 04:07:00,
2013-02-01 21:09:00,30.0,11.7,22.60,West,281,8.0,21.0,46,0.00,,,0.00,Wunderground v.1.15,2013-02-02 04:09:00,
2013-02-01 21:11:00,29.9,11.6,22.60,WSW,253,8.0,21.0,46,0.00,,,0.00,Wunderground v.1.15,2013-02-02 04:11:00,
2013-02-01 21:15:00,29.9,12.1,22.60,South,186,9.0,21.0,47,0.00,,,0.00,Wunderground v.1.15,2013-02-02 04:15:00,
2013-02-01 21:17:00,29.8,12.0,22.60,SSW,212,9.0,21.0,47,0.00,,,0.00,Wunderground v.1.15,2013-02-02 04:17:00,
2013-02-01 21:21:00,29.9,12.1,22.60,WSW,247,11.0,21.0,47,0.00,,,0.00,Wunderground v.1.15,2013-02-02 04:21:00,
2013-02-01 21:23:00,29.8,12.0,22.60,East,89,11.0,11.0,47,0.00,,,0.00,Wunderground v.1.15,2013-02-02 04:23:00,
2013-02-01 21:27:00,29.8,11.5,22.60,SW,236,10.0,21.0,46,0.00,,,0.00,Wunderground v.1.15,2013-02-02 04:27:00,
2013-02-01 21:29:00,29.9,12.1,22.60,SW,228,9.0,21.0,47,0.00,,,0.00,Wunderground v.1.15,2013-02-02 04:29:00,
2013-02-01 21:31:00,29.8,11.5,22.60,SSE,149,8.0,21.0,46,0.00,,,0.00,Wunderground v.1.15,2013-02-02 04:31:00,
2013-02-01 21:33:00,29.8,11.5,22.61,SW,218,7.0,21.0,46,0.00,,,0.00,Wunderground v.1.15,2013-02-02 04:33:00,
2013-02-01 21:35:00,29.8,11.5,22.61,SW,231,8.0,21.0,46,0.00,,,0.00,Wunderground v.1.15,2013-02-02 04:35:00,
2013-02-01 21:39:00,29.7,11.4,22.60,NNW,340,7.0,21.0,46,0.00,,,0.00,Wunderground v.1.15,2013-02-02 04:39:00,
2013-02-01 21:41:00,29.7,11.4,22.60,SW,224,7.0,21.0,46,0.00,,,0.00,Wunderground v.1.15,2013-02-02 04:41:00,
2013-02-01 21:43:00,29.8,11.5,22.60,SSW,200,7.0,21.0,46,0.00,,,0.00,Wunderground v.1.15,2013-02-02 04:43:00,
2013-02-01 21:47:00,29.7,11.9,22.60,SW,235,9.0,21.0,47,0.00,,,0.00,Wunderground v.1.15,2013-02-02 04:47:00,
2013-02-01 21:53:00,29.8,12.0,22.59,NNW,335,11.0,11.0,47,0.00,,,0.00,Wunderground v.1.15,2013-02-02 04:53:00,
2013-02-01 21:55:00,29.8,12.0,22.60,WSW,238,11.0,21.0,47,0.00,,,0.00,Wunderground v.1.15,2013-02-02 04:55:00,
2013-02-01 21:59:00,29.8,12.0,22.59,WSW,248,11.0,21.0,47,0.00,,,0.00,Wunderground v.1.15,2013-02-02 04:59:00,
2013-02-01 22:01:00,29.8,12.0,22.60,SSW,205,11.0,21.0,47,0.00,,,0.00,Wunderground v.1.15,2013-02-02 05:01:00,
2013-02-01 22:03:00,29.8,12.0,22.60,SW,231,10.0,21.0,47,0.00,,,0.00,Wunderground v.1.15,2013-02-02 05:03:00,
2013-02-01 22:09:00,29.7,12.4,22.60,SW,232,11.0,21.0,48,0.00,,,0.00,Wunderground v.1.15,2013-02-02 05:09:00,
2013-02-01 22:11:00,29.6,12.3,22.60,SSW,210,10.0,21.0,48,0.00,,,0.00,Wunderground v.1.15,2013-02-02 05:11:00,
2013-02-01 22:15:00,29.6,12.3,22.59,WNW,298,12.0,21.0,48,0.00,,,0.00,Wunderground v.1.15,2013-02-02 05:15:00,
2013-02-01 22:21:00,29.5,11.7,22.60,SW,222,11.0,21.0,47,0.00,,,0.00,Wunderground v.1.15,2013-02-02 05:21:00,
2013-02-01 22:23:00,29.5,11.7,22.59,West,274,12.0,21.0,47,0.00,,,0.00,Wunderground v.1.15,2013-02-02 05:23:00,
2013-02-01 22:25:00,29.5,11.2,22.60,SW,217,11.0,21.0,46,0.00,,,0.00,Wunderground v.1.15,2013-02-02 05:25:00,
2013-02-01 22:29:00,29.6,11.3,22.59,SW,225,13.0,22.0,46,0.00,,,0.00,Wunderground v.1.15,2013-02-02 05:29:00,
2013-02-01 22:31:00,29.6,11.8,22.60,West,264,14.0,22.0,47,0.00,,,0.00,Wunderground v.1.15,2013-02-02 05:31:00,
2013-02-01 22:33:00,29.5,11.2,22.59,WNW,302,14.0,14.0,46,0.00,,,0.00,Wunderground v.1.15,2013-02-02 05:33:00,
2013-02-01 22:37:00,29.4,11.1,22.59,WSW,240,13.0,21.0,46,0.00,,,0.00,Wunderground v.1.15,2013-02-02 05:37:00,
2013-02-01 22:39:00,29.4,11.1,22.58,South,172,12.0,21.0,46,0.00,,,0.00,Wunderground v.1.15,2013-02-02 05:39:00,
2013-02-01 22:41:00,29.4,11.1,22.59,ESE,104,11.0,21.0,46,0.00,,,0.00,Wunderground v.1.15,2013-02-02 05:41:00,
2013-02-01 22:43:00,29.3,11.1,22.59,SSW,211,11.0,11.0,46,0.00,,,0.00,Wunderground v.1.15,2013-02-02 05:43:00,
2013-02-01 22:47:00,29.2,11.0,22.59,West,276,9.0,21.0,46,0.00,,,0.00,Wunderground v.1.15,2013-02-02 05:47:00,
2013-02-01 22:53:00,29.1,11.4,22.60,WSW,240,9.0,21.0,47,0.00,,,0.00,Wunderground v.1.15,2013-02-02 05:53:00,
2013-02-01 22:55:00,29.2,11.0,22.59,WSW,245,10.0,21.0,46,0.00,,,0.00,Wunderground v.1.15,2013-02-02 05:55:00,
2013-02-01 22:57:00,29.2,11.4,22.59,West,280,10.0,24.0,47,0.00,,,0.00,Wunderground v.1.15,2013-02-02 05:57:00,
2013-02-01 22:59:00,29.2,11.4,22.60,West,273,12.0,24.0,47,0.00,,,0.00,Wunderground v.1.15,2013-02-02 05:59:00,
2013-02-01 23:01:00,29.2,11.4,22.59,SW,236,13.0,24.0,47,0.00,,,0.00,Wunderground v.1.15,2013-02-02 06:01:00,
2013-02-01 23:05:00,29.2,11.4,22.59,SSW,212,13.0,21.0,47,0.00,,,0.00,Wunderground v.1.15,2013-02-02 06:05:00,
2013-02-01 23:07:00,29.1,11.4,22.60,SSW,207,12.0,21.0,47,0.00,,,0.00,Wunderground v.1.15,2013-02-02 06:07:00,
2013-02-01 23:09:00,29.1,10.9,22.58,South,179,12.0,21.0,46,0.00,,,0.00,Wunderground v.1.15,2013-02-02 06:09:00,
2013-02-01 23:13:00,29.1,11.4,22.59,West,260,12.0,12.0,47,0.00,,,0.00,Wunderground v.1.15,2013-02-02 06:13:00,
2013-02-01 23:15:00,29.0,11.3,22.59,SW,228,12.0,21.0,47,0.00,,,0.00,Wunderground v.1.15,2013-02-02 06:15:00,
2013-02-01 23:17:00,29.1,11.4,22.60,WSW,240,14.0,21.0,47,0.00,,,0.00,Wunderground v.1.15,2013-02-02 06:17:00,
2013-02-01 23:23:00,29.1,10.9,22.59,WNW,288,12.0,12.0,46,0.00,,,0.00,Wunderground v.1.15,2013-02-02 06:23:00,
2013-02-01 23:29:00,29.1,10.9,22.60,SW,214,10.0,21.0,46,0.00,,,0.00,Wunderground v.1.15,2013-02-02 06:29:00,
2013-02-01 23:31:00,29.1,10.9,22.60,West,281,10.0,21.0,46,0.00,,,0.00,Wunderground v.1.15,2013-02-02 06:31:00,
2013-02-01 23:37:00,29.0,11.3,22.60,West,264,11.0,26.0,47,0.00,,,0.00,Wunderground v.1.15,2013-02-02 06:37:00,
2013-02-01 23:43:00,29.1,10.9,22.60,WNW,301,11.0,11.0,46,0.00,,,0.00,Wunderground v.1.15,2013-02-02 06:43:00,
2013-02-01 23:45:00,29.1,10.9,22.60,NW,316,10.0,21.0,46,0.00,,,0.00,Wunderground v.1.15,2013-02-02 06:45:00,
2013-02-01 23:51:00,29.1,11.4,22.61,SW,231,11.0,21.0,47,0.00,,,0.00,Wunderground v.1.15,2013-02-02 06:51:00,
2013-02-01 23:57:00,28.9,11.6,22.59,WSW,256,12.0,27.0,48,0.00,,,0.00,Wunderground v.1.15,2013-02-02 06:57:00,
2013-02-01 23:59:00,28.9,11.2,22.60,WNW,297,12.0,27.0,47,0.00,,,0.00,Wunderground v.1.15,2013-02-02 06:59:00,